Погода в Понтианаке

Индонезия     0°01′57″N   109°19′32″E
темп.,
°C
ветер,
м/с
пор.,
м/с
влажн.,
%
обл.,
%
осадки,
мм/ч
давл.,
гПа
погр.,
м
19 сентября, вс
вс1901:00+24в2395100 6.1 1010103
04:00+24вюв1294100 0.2 1010116
07:00+25вюв129185 0.3 1011167
10:00+28ююв1279100 2.9 1011387
13:00+28зсз0181100 4.6 1009380
16:00+27зсз0179100 0.1 1007318
19:00+26з1282100 0.9 1010157
22:00+25ю238897 1.5 1011125
20 сентября, пн
пн2001:00+25ю2389100 2.9 1009128
04:00+24ююв3692100 0.8 1009220
07:00+25юв3591100 0.8 1011269
10:00+30юв246382 0.1 10111026
13:00+32зюз3454100 0.1 10071564
16:00+29зюз5672100 0.1 1006483
19:00+27юз348283 0.4 1009144
22:00+26зюз1283100 1.5 101068
21 сентября, вт
вт2101:00+25ю1286100 1.9 100991
04:00+24ю2388100 0.1 1008141
07:00+25юв238783 0.1 1010201
10:00+30ю12635 0.2 1010918
13:00+30з4363100 0.4 1007766
16:00+29юз4671100 0.1 1007458
19:00+26ююз1378100 0.4 1009208
22:00+25юв2284100 0.0 1010102
22 сентября, ср
ср2201:00+25вюв2286100 0.0 100988
04:00+24в2391100 0.0 1008129
07:00+25в2387100 0.2 1010240
10:00+28в3479100 1.9 1011650
13:00+30в1264100 2.1 1008975
16:00+29юв116958 0.0 1007396
19:00+27сз128096 0.4 1009136
22:00+26с1185100 0.6 101070
23 сентября, чт
чт2301:00+25всв229099 0.7 100984
04:00+24вюв239296 0.1 1008118
07:00+24всв239199 0.1 1010178
10:00+30всв126439 0.0 1010834
13:00+29з447162 0.2 1007488
16:00+29з447337 0.7 1007523
19:00+25зсз248841 2.5 1009148
22:00+25с348863 2.0 1011182